Location: Malmö
(55.6090°N, 13.0007°E)
Time: 00:42:42
(UTC+01:00)

ISS - Pass Details

Date: 25 January 2021
Orbit: 417 x 422 km, 51.6° (Epoch: 06 March)

Event Time Altitude Azimuth Distance (km) Brightness Sun altitude
Rises 19:33:13 0° 259° (W) 2,375 1.3 -25.6°
Reaches altitude 10° 19:35:23 10° 253° (WSW) 1,511 -0.1 -25.9°
Enters shadow 19:36:56 23° 239° (WSW) 943 -1.5 -26.1°
